Location: Newark
(45.2500°N, 7.5833°E)
Time: 03:18:33
(UTC+00:00)

Tiros 1 despin weight - Pass Details

Date: 04 February 2020
Orbit: 594 x 642 km, 48.2° (Epoch: 16 February)

Event Time Altitude Azimuth Distance (km) Brightness Sun altitude
Rises 08:59:48 0° 266° (W) 2,839 ? 18.1°
Reaches altitude 10° 09:02:06 10° 270° (W) 1,943 ? 18.4°
Maximum altitude 09:06:31 63° 352° (N) 680 ? 18.9°
Drops below altitude 10° 09:11:01 10° 74° (ENE) 1,973 ? 19.4°
Sets 09:13:22 0° 77° (ENE) 2,887 ? 19.6°
